This is the latest recevied weather packets stored in our database for station/object WX1NWA. If no packets are shown the sender has not sent any weather packets the latest 10 day(s).
| Time | Temp. | Humidity | Pressure | Rain* | Wind** | Luminosity | Snow |
|---|---|---|---|---|---|---|---|
| 1777047140 | 15.56° C | 99% | 1012.2 hPa | 0 mm | - | 269 W/m² | - |
| 1777046838 | 15.56° C | 99% | 1012.2 hPa | 0 mm | - | 216 W/m² | - |
| 1777046533 | 15.56° C | 99% | 1011.9 hPa | 0 mm | - | 235 W/m² | - |
| 1777046229 | 15.56° C | 99% | 1011.8 hPa | 0 mm | - | 194 W/m² | - |
| 1777045925 | 15° C | 99% | 1011.7 hPa | 0 mm | - | 171 W/m² | - |
| 1777045621 | 15° C | 99% | 1011.6 hPa | 0 mm | - | 111 W/m² | - |
| 1777045317 | 15° C | 99% | 1011.6 hPa | 0 mm | - | 115 W/m² | - |
| 1777045013 | 14.44° C | 99% | 1011.5 hPa | 0 mm | - | 209 W/m² | - |
| 1777044709 | 13.89° C | 99% | 1011.5 hPa | 0 mm | - | 172 W/m² | - |
| 1777044405 | 14.44° C | 99% | 1011.3 hPa | 0 mm | - | 149 W/m² | - |
| 1777044106 | 14.44° C | 99% | 1011.4 hPa | 0 mm | - | 160 W/m² | - |
| 1777043802 | 14.44° C | 99% | 1010.9 hPa | 0 mm | - | 211 W/m² | - |
| 1777043499 | 13.89° C | 99% | 1010.9 hPa | 0 mm | - | 208 W/m² | - |
| 1777043196 | 13.89° C | 99% | 1011.1 hPa | 0 mm | - | 195 W/m² | - |
| 1777042891 | 13.89° C | 99% | 1010.6 hPa | 0 mm | - | 176 W/m² | - |
| 1777042587 | 13.89° C | 99% | 1010.5 hPa | 0 mm | - | 150 W/m² | - |
| 1777042282 | 13.89° C | 99% | 1010.1 hPa | 0 mm | - | 115 W/m² | - |
| 1777041978 | 13.89° C | 99% | 1010.3 hPa | 0 mm | - | 92 W/m² | - |
| 1777041676 | 13.89° C | 99% | 1010.2 hPa | 0 mm | - | 79 W/m² | - |
| 1777041371 | 13.33° C | 99% | 1010.1 hPa | 0 mm | - | 70 W/m² | - |
| 1777041068 | 13.33° C | 99% | 1009.5 hPa | 0 mm | - | 60 W/m² | - |
| 1777040764 | 13.33° C | 99% | 1009.2 hPa | 0 mm | - | 42 W/m² | - |
| 1777040463 | 12.78° C | 99% | 1009.3 hPa | 0 mm | - | 24 W/m² | - |
| 1777040159 | 12.78° C | 99% | 1009.3 hPa | 0 mm | - | 17 W/m² | - |
| 1777039855 | 12.78° C | 99% | 1009.9 hPa | 0 mm | - | 13 W/m² | - |
* Rain latest hour (hover to see other rain measurements)
** Current wind speed in m/s (hover to see current wind gust speed)